| time (UTC) | temp F | wind direction | speed MPH | gust MPH | rain 1hr in | rain 24hr in | rain mn in | humidity % | barometer mb |
| 20260508142003 | 61 | 25 | 5.0 | 23.0 | 0.00 | 0.00 | 0.00 | 35 | 1019.9 |
| 20260508141503 | 61 | 29 | 8.0 | 18.0 | 0.00 | 0.00 | 0.00 | 35 | 1020.0 |
| 20260508141218 | 61 | 36 | 7.0 | 18.0 | 0.00 | 0.00 | 0.00 | 35 | 1020.0 |
| 20260508140503 | 61 | 85 | 5.0 | 25.0 | 0.00 | 0.00 | 0.00 | 35 | 1020.0 |
| 20260508140218 | 61 | 72 | 6.0 | 25.0 | 0.00 | 0.00 | 0.00 | 35 | 1019.9 |
| 20260508135503 | 61 | 44 | 6.0 | 25.0 | 0.00 | 0.00 | 0.00 | 34 | 1020.1 |
| 20260508135218 | 61 | 41 | 5.0 | 16.0 | 0.00 | 0.00 | 0.00 | 34 | 1020.0 |
| 20260508134717 | 61 | 34 | 5.0 | 15.0 | 0.00 | 0.00 | 0.00 | 34 | 1020.2 |
| 20260508134218 | 61 | 24 | 4.0 | 15.0 | 0.00 | 0.00 | 0.00 | 34 | 1020.0 |
| 20260508133503 | 61 | 97 | 3.0 | 12.0 | 0.00 | 0.00 | 0.00 | 34 | 1020.1 |
| 20260508133218 | 61 | 112 | 3.0 | 12.0 | 0.00 | 0.00 | 0.00 | 33 | 1020.2 |
| 20260508132503 | 61 | 108 | 4.0 | 14.0 | 0.00 | 0.00 | 0.00 | 33 | 1020.3 |
| 20260508132003 | 61 | 55 | 5.0 | 16.0 | 0.00 | 0.00 | 0.00 | 34 | 1020.3 |
| 20260508131503 | 61 | 52 | 4.0 | 16.0 | 0.00 | 0.00 | 0.00 | 34 | 1020.3 |
| 20260508131003 | 61 | 61 | 6.0 | 16.0 | 0.00 | 0.00 | 0.00 | 34 | 1020.5 |
| 20260508130503 | 61 | 23 | 7.0 | 21.0 | 0.00 | 0.00 | 0.00 | 35 | 1020.4 |
| 20260508130003 | 61 | 36 | 6.0 | 21.0 | 0.00 | 0.00 | 0.00 | 35 | 1020.4 |
| 20260508125503 | 60 | 51 | 6.0 | 16.0 | 0.00 | 0.00 | 0.00 | 36 | 1020.7 |
| 20260508125003 | 60 | 30 | 7.0 | 18.0 | 0.00 | 0.00 | 0.00 | 36 | 1020.6 |
| 20260508124503 | 60 | 12 | 8.0 | 29.0 | 0.00 | 0.00 | 0.00 | 36 | 1020.7 |
| 20260508124003 | 60 | 14 | 9.0 | 29.0 | 0.00 | 0.00 | 0.00 | 36 | 1020.4 |
| 20260508123717 | 60 | 11 | 8.0 | 21.0 | 0.00 | 0.00 | 0.00 | 38 | 1020.6 |
| 20260508123003 | 60 | 17 | 7.0 | 21.0 | 0.00 | 0.00 | 0.00 | 37 | 1020.5 |
| 20260508122503 | 60 | 40 | 5.0 | 12.0 | 0.00 | 0.00 | 0.00 | 39 | 1020.5 |
| 20260508122003 | 60 | 61 | 5.0 | 14.0 | 0.00 | 0.00 | 0.00 | 38 | 1020.5 |
| 20260508121503 | 60 | 59 | 5.0 | 14.0 | 0.00 | 0.00 | 0.00 | 38 | 1020.6 |
| 20260508121217 | 60 | 66 | 5.0 | 14.0 | 0.00 | 0.00 | 0.00 | 38 | 1020.7 |
| 20260508120503 | 60 | 74 | 4.0 | 14.0 | 0.00 | 0.00 | 0.00 | 39 | 1020.4 |
| 20260508120003 | 60 | 59 | 4.0 | 14.0 | 0.00 | 0.00 | 0.00 | 39 | 1020.5 |
| 20260508115503 | 60 | 61 | 4.0 | 14.0 | 0.00 | 0.00 | 0.00 | 39 | 1020.6 |
| 20260508115003 | 60 | 49 | 4.0 | 15.0 | 0.00 | 0.00 | 0.00 | 39 | 1020.5 |
| 20260508114503 | 60 | 52 | 5.0 | 15.0 | 0.00 | 0.00 | 0.00 | 40 | 1020.9 |
| 20260508114003 | 60 | 79 | 4.0 | 15.0 | 0.00 | 0.00 | 0.00 | 40 | 1020.7 |
| 20260508113503 | 59 | 57 | 5.0 | 21.0 | 0.00 | 0.00 | 0.00 | 41 | 1020.5 |
| 20260508113004 | 59 | 45 | 7.0 | 21.0 | 0.00 | 0.00 | 0.00 | 41 | 1020.7 |
| 20260508112503 | 59 | 45 | 9.0 | 21.0 | 0.00 | 0.00 | 0.00 | 41 | 1020.8 |
| 20260508112003 | 59 | 43 | 8.0 | 21.0 | 0.00 | 0.00 | 0.00 | 42 | 1020.7 |
| 20260508111718 | 59 | 43 | 7.0 | 16.0 | 0.00 | 0.00 | 0.00 | 43 | 1020.7 |
| 20260508111003 | 59 | 52 | 7.0 | 18.0 | 0.00 | 0.00 | 0.00 | 43 | 1020.9 |
| 20260508110503 | 59 | 43 | 6.0 | 18.0 | 0.00 | 0.00 | 0.00 | 44 | 1020.7 |
| 20260508110004 | 59 | 39 | 6.0 | 19.0 | 0.00 | 0.00 | 0.00 | 45 | 1020.7 |
| 20260508105503 | 59 | 48 | 7.0 | 19.0 | 0.00 | 0.00 | 0.00 | 45 | 1021.0 |
| 20260508105003 | 59 | 65 | 6.0 | 19.0 | 0.00 | 0.00 | 0.00 | 45 | 1020.9 |
| 20260508104503 | 58 | 73 | 4.0 | 11.0 | 0.00 | 0.00 | 0.00 | 47 | 1020.8 |
| 20260508104003 | 58 | 61 | 4.0 | 12.0 | 0.00 | 0.00 | 0.00 | 46 | 1020.7 |
| 20260508103718 | 59 | 53 | 5.0 | 12.0 | 0.00 | 0.00 | 0.00 | 46 | 1020.7 |
| 20260508103003 | 58 | 55 | 5.0 | 12.0 | 0.00 | 0.00 | 0.00 | 47 | 1020.7 |
| 20260508102503 | 58 | 62 | 3.0 | 12.0 | 0.00 | 0.00 | 0.00 | 48 | 1021.0 |
| 20260508102003 | 58 | 171 | 3.0 | 11.0 | 0.00 | 0.00 | 0.00 | 48 | 1020.7 |
| 20260508101503 | 58 | 121 | 3.0 | 8.0 | 0.00 | 0.00 | 0.00 | 48 | 1020.8 |
| 20260508101003 | 58 | 111 | 3.0 | 14.0 | 0.00 | 0.00 | 0.00 | 49 | 1021.1 |
| 20260508100503 | 57 | 67 | 3.0 | 14.0 | 0.00 | 0.00 | 0.00 | 50 | 1020.6 |
| 20260508100003 | 57 | 45 | 6.0 | 14.0 | 0.00 | 0.00 | 0.00 | 49 | 1020.9 |
| 20260508095503 | 57 | 41 | 8.0 | 15.0 | 0.00 | 0.00 | 0.00 | 50 | 1021.0 |
| 20260508095003 | 57 | 46 | 8.0 | 15.0 | 0.00 | 0.00 | 0.00 | 51 | 1021.0 |
| 20260508094503 | 57 | 55 | 5.0 | 15.0 | 0.00 | 0.00 | 0.00 | 51 | 1020.9 |
| 20260508094217 | 57 | 47 | 4.0 | 15.0 | 0.00 | 0.00 | 0.00 | 51 | 1020.9 |
| 20260508093503 | 56 | 36 | 4.0 | 16.0 | 0.00 | 0.00 | 0.00 | 51 | 1021.0 |
| 20260508093003 | 56 | 38 | 6.0 | 16.0 | 0.00 | 0.00 | 0.00 | 51 | 1021.3 |
| 20260508092503 | 56 | 38 | 7.0 | 16.0 | 0.00 | 0.00 | 0.00 | 52 | 1021.2 |
| 20260508092003 | 56 | 33 | 4.0 | 11.0 | 0.00 | 0.00 | 0.00 | 52 | 1021.1 |
| 20260508091503 | 56 | 46 | 2.0 | 10.0 | 0.00 | 0.00 | 0.00 | 53 | 1021.2 |
| 20260508091003 | 56 | 37 | 2.0 | 10.0 | 0.00 | 0.00 | 0.00 | 53 | 1021.2 |
| 20260508090503 | 56 | 77 | 3.0 | 12.0 | 0.00 | 0.00 | 0.00 | 53 | 1021.2 |
| 20260508090003 | 55 | 58 | 5.0 | 14.0 | 0.00 | 0.00 | 0.00 | 54 | 1021.3 |
| 20260508085503 | 55 | 46 | 5.0 | 14.0 | 0.00 | 0.00 | 0.00 | 54 | 1021.2 |
| 20260508085003 | 55 | 55 | 4.0 | 11.0 | 0.00 | 0.00 | 0.00 | 55 | 1021.2 |
| 20260508084503 | 55 | 56 | 4.0 | 14.0 | 0.00 | 0.00 | 0.00 | 55 | 1021.2 |
| 20260508084003 | 55 | 65 | 4.0 | 14.0 | 0.00 | 0.00 | 0.00 | 54 | 1021.2 |
| 20260508083717 | 55 | 69 | 4.0 | 14.0 | 0.00 | 0.00 | 0.00 | 54 | 1021.3 |
| 20260508083218 | 54 | 72 | 3.0 | 10.0 | 0.00 | 0.00 | 0.00 | 54 | 1021.1 |
| 20260508082503 | 54 | 47 | 4.0 | 12.0 | 0.00 | 0.00 | 0.00 | 54 | 1021.0 |
| 20260508082003 | 54 | 33 | 5.0 | 12.0 | 0.00 | 0.00 | 0.00 | 54 | 1021.2 |
| 20260508081503 | 54 | 36 | 4.0 | 12.0 | 0.00 | 0.00 | 0.00 | 54 | 1021.0 |
| 20260508081003 | 54 | 144 | 3.0 | 12.0 | 0.00 | 0.00 | 0.00 | 53 | 1021.1 |
| 20260508080503 | 53 | 151 | 3.0 | 12.0 | 0.00 | 0.00 | 0.00 | 53 | 1021.0 |
| 20260508080218 | 53 | 109 | 2.0 | 8.0 | 0.00 | 0.00 | 0.00 | 52 | 1021.3 |
| 20260508075503 | 53 | 71 | 2.0 | 8.0 | 0.00 | 0.00 | 0.00 | 52 | 1021.1 |
| 20260508075003 | 53 | 58 | 3.0 | 8.0 | 0.00 | 0.00 | 0.00 | 53 | 1020.9 |
| 20260508074503 | 53 | 69 | 3.0 | 10.0 | 0.00 | 0.00 | 0.00 | 53 | 1021.0 |
| 20260508074003 | 53 | 67 | 3.0 | 10.0 | 0.00 | 0.00 | 0.00 | 53 | 1021.1 |
| 20260508073503 | 52 | 68 | 2.0 | 10.0 | 0.00 | 0.00 | 0.00 | 53 | 1021.3 |
| 20260508073003 | 52 | 90 | 2.0 | 8.0 | 0.00 | 0.00 | 0.00 | 53 | 1021.2 |
| 20260508072503 | 52 | 54 | 2.0 | 10.0 | 0.00 | 0.00 | 0.00 | 53 | 1021.1 |
| 20260508072003 | 52 | 32 | 2.0 | 12.0 | 0.00 | 0.00 | 0.00 | 54 | 1021.4 |
| 20260508071503 | 51 | 20 | 2.0 | 12.0 | 0.00 | 0.00 | 0.00 | 54 | 1021.1 |
| 20260508071003 | 51 | 17 | 2.0 | 12.0 | 0.00 | 0.00 | 0.00 | 55 | 1021.2 |
| 20260508070503 | 51 | 24 | 1.0 | 5.0 | 0.00 | 0.00 | 0.00 | 56 | 1021.1 |
| 20260508070218 | 51 | 20 | 2.0 | 5.0 | 0.00 | 0.00 | 0.00 | 57 | 1021.0 |
| 20260508065503 | 50 | 22 | 2.0 | 8.0 | 0.00 | 0.00 | 0.00 | 58 | 1021.1 |
| 20260508065003 | 50 | 28 | 3.0 | 8.0 | 0.00 | 0.00 | 0.00 | 60 | 1020.9 |
| 20260508064503 | 49 | 33 | 3.0 | 8.0 | 0.00 | 0.00 | 0.00 | 61 | 1021.0 |
| 20260508064003 | 49 | 34 | 1.0 | 7.0 | 0.00 | 0.00 | 0.00 | 62 | 1020.9 |
| 20260508063503 | 49 | 24 | 1.0 | 4.0 | 0.00 | 0.00 | 0.00 | 63 | 1020.9 |
| 20260508063003 | 49 | 25 | 1.0 | 4.0 | 0.00 | 0.00 | 0.00 | 65 | 1020.9 |
| 20260508062716 | 49 | 24 | 1.0 | 4.0 | 0.00 | 0.00 | 0.00 | 65 | 1020.8 |
| 20260508062217 | 48 | 19 | 1.0 | 5.0 | 0.00 | 0.00 | 0.00 | 65 | 1021.0 |
| 20260508061718 | 48 | 22 | 1.0 | 5.0 | 0.00 | 0.00 | 0.00 | 66 | 1020.9 |
| 20260508061003 | 48 | 22 | 1.0 | 4.0 | 0.00 | 0.00 | 0.00 | 67 | 1020.9 |
| 20260508060503 | 47 | 20 | 1.0 | 4.0 | 0.00 | 0.00 | 0.00 | 67 | 1020.8 |
| 20260508060003 | 47 | 19 | 1.0 | 4.0 | 0.00 | 0.00 | 0.00 | 67 | 1020.6 |
| 20260508055503 | 47 | 17 | 1.0 | 4.0 | 0.00 | 0.00 | 0.00 | 68 | 1020.6 |
| 20260508055003 | 47 | 17 | 1.0 | 3.0 | 0.00 | 0.00 | 0.00 | 68 | 1020.6 |
| 20260508054503 | 46 | 14 | 1.0 | 3.0 | 0.00 | 0.00 | 0.00 | 69 | 1020.5 |
| 20260508054003 | 46 | 16 | 1.0 | 3.0 | 0.00 | 0.00 | 0.00 | 69 | 1020.4 |
| 20260508053503 | 46 | 21 | 1.0 | 4.0 | 0.00 | 0.00 | 0.00 | 69 | 1020.3 |
| 20260508053003 | 46 | 19 | 0.0 | 4.0 | 0.00 | 0.00 | 0.00 | 69 | 1020.5 |
| 20260508052503 | 45 | 11 | 0.0 | 3.0 | 0.00 | 0.00 | 0.00 | 70 | 1020.5 |
| 20260508052003 | 45 | 13 | 0.0 | 4.0 | 0.00 | 0.00 | 0.00 | 70 | 1020.4 |
| 20260508051503 | 45 | 17 | 1.0 | 4.0 | 0.00 | 0.00 | 0.00 | 70 | 1020.6 |
| 20260508051217 | 45 | 19 | 1.0 | 4.0 | 0.00 | 0.00 | 0.00 | 70 | 1020.4 |
| 20260508050503 | 44 | 21 | 0.0 | 4.0 | 0.00 | 0.00 | 0.00 | 71 | 1020.4 |
| 20260508050003 | 44 | 19 | 0.0 | 4.0 | 0.00 | 0.00 | 0.00 | 72 | 1020.3 |
| 20260508045503 | 43 | 17 | 0.0 | 3.0 | 0.00 | 0.00 | 0.00 | 72 | 1020.1 |
| 20260508045003 | 42 | 14 | 0.0 | 1.0 | 0.00 | 0.00 | 0.00 | 73 | 1020.3 |
| 20260508044503 | 42 | 12 | 0.0 | 3.0 | 0.00 | 0.00 | 0.00 | 73 | 1020.2 |
| 20260508044217 | 42 | 14 | 0.0 | 3.0 | 0.00 | 0.00 | 0.00 | 73 | 1020.2 |
| 20260508043503 | 41 | 17 | 0.0 | 4.0 | 0.00 | 0.00 | 0.00 | 73 | 1020.3 |
| 20260508043216 | 41 | 17 | 0.0 | 4.0 | 0.00 | 0.00 | 0.00 | 73 | 1020.1 |
| 20260508042503 | 41 | 13 | 1.0 | 1.0 | 0.00 | 0.00 | 0.00 | 73 | 1020.3 |
| 20260508042003 | 40 | 15 | 1.0 | 3.0 | 0.00 | 0.00 | 0.00 | 72 | 1020.1 |
| 20260508041504 | 40 | 14 | 1.0 | 3.0 | 0.00 | 0.00 | 0.00 | 72 | 1020.1 |
| 20260508041003 | 40 | 15 | 1.0 | 3.0 | 0.00 | 0.00 | 0.00 | 72 | 1020.0 |
| 20260508040503 | 40 | 15 | 1.0 | 3.0 | 0.00 | 0.00 | 0.00 | 71 | 1020.2 |
| 20260508040003 | 40 | 14 | 1.0 | 3.0 | 0.00 | 0.00 | 0.00 | 71 | 1020.0 |
| 20260508035503 | 41 | 16 | 1.0 | 3.0 | 0.00 | 0.00 | 0.00 | 70 | 1019.9 |
| 20260508035003 | 41 | 18 | 1.0 | 3.0 | 0.00 | 0.00 | 0.00 | 70 | 1020.2 |
| 20260508034717 | 41 | 18 | 1.0 | 3.0 | 0.00 | 0.00 | 0.00 | 70 | 1019.9 |
| 20260508034003 | 42 | 19 | 0.0 | 3.0 | 0.00 | 0.00 | 0.00 | 70 | 1019.9 |
| 20260508033503 | 42 | 18 | 0.0 | 3.0 | 0.00 | 0.00 | 0.00 | 69 | 1020.0 |
| 20260508033003 | 42 | 18 | 0.0 | 3.0 | 0.00 | 0.00 | 0.00 | 69 | 1019.9 |
| 20260508032503 | 42 | 19 | 0.0 | 3.0 | 0.00 | 0.00 | 0.00 | 69 | 1019.9 |
| 20260508032003 | 43 | 16 | 0.0 | 1.0 | 0.00 | 0.00 | 0.00 | 68 | 1019.9 |
| 20260508031503 | 43 | 17 | 0.0 | 3.0 | 0.00 | 0.00 | 0.00 | 68 | 1019.7 |
| 20260508031003 | 43 | 20 | 0.0 | 3.0 | 0.00 | 0.00 | 0.00 | 68 | 1019.7 |
| 20260508030503 | 44 | 22 | 1.0 | 3.0 | 0.00 | 0.00 | 0.00 | 68 | 1019.9 |
| 20260508030003 | 44 | 22 | 1.0 | 3.0 | 0.00 | 0.00 | 0.00 | 69 | 1020.0 |
| 20260508025503 | 44 | 14 | 0.0 | 3.0 | 0.00 | 0.00 | 0.00 | 69 | 1019.8 |
| 20260508025003 | 43 | 21 | 0.0 | 4.0 | 0.00 | 0.00 | 0.00 | 69 | 1019.8 |
| 20260508024503 | 43 | 25 | 1.0 | 4.0 | 0.00 | 0.00 | 0.00 | 69 | 1019.8 |
| 20260508024003 | 43 | 23 | 1.0 | 3.0 | 0.00 | 0.00 | 0.00 | 68 | 1019.6 |
| 20260508023717 | 43 | 23 | 1.0 | 3.0 | 0.00 | 0.00 | 0.00 | 68 | 1019.8 |
| 20260508023003 | 43 | 15 | 0.0 | 3.0 | 0.00 | 0.00 | 0.00 | 67 | 1019.7 |
| 20260508022503 | 44 | 18 | 0.0 | 3.0 | 0.00 | 0.00 | 0.00 | 67 | 1019.5 |
| 20260508022003 | 44 | 21 | 0.0 | 3.0 | 0.00 | 0.00 | 0.00 | 67 | 1019.7 |
| 20260508021503 | 44 | 17 | 0.0 | 4.0 | 0.00 | 0.00 | 0.00 | 67 | 1019.7 |
| 20260508021003 | 44 | 16 | 0.0 | 4.0 | 0.00 | 0.00 | 0.00 | 67 | 1019.7 |
| 20260508020503 | 44 | 15 | 0.0 | 3.0 | 0.00 | 0.00 | 0.00 | 66 | 1019.6 |
| 20260508020003 | 45 | 15 | 0.0 | 3.0 | 0.00 | 0.00 | 0.00 | 66 | 1019.6 |
| 20260508015503 | 45 | 16 | 0.0 | 3.0 | 0.00 | 0.00 | 0.00 | 66 | 1019.5 |
| 20260508015003 | 45 | 20 | 0.0 | 4.0 | 0.00 | 0.00 | 0.00 | 66 | 1019.5 |
| 20260508014716 | 45 | 22 | 0.0 | 4.0 | 0.00 | 0.00 | 0.00 | 66 | 1019.8 |
| 20260508014003 | 45 | 20 | 0.0 | 4.0 | 0.00 | 0.00 | 0.00 | 66 | 1019.8 |
| 20260508013503 | 45 | 18 | 0.0 | 3.0 | 0.00 | 0.00 | 0.00 | 66 | 1019.7 |
| 20260508013003 | 45 | 23 | 1.0 | 5.0 | 0.00 | 0.00 | 0.00 | 66 | 1019.6 |
| 20260508012503 | 45 | 27 | 1.0 | 5.0 | 0.00 | 0.00 | 0.00 | 67 | 1019.5 |
| 20260508012003 | 44 | 27 | 2.0 | 5.0 | 0.00 | 0.00 | 0.00 | 67 | 1019.7 |
| 20260508011503 | 44 | 27 | 1.0 | 5.0 | 0.00 | 0.00 | 0.00 | 67 | 1019.7 |
| 20260508011003 | 44 | 24 | 1.0 | 5.0 | 0.00 | 0.00 | 0.00 | 67 | 1019.5 |
| 20260508010503 | 44 | 23 | 0.0 | 4.0 | 0.00 | 0.00 | 0.00 | 67 | 1019.6 |
| 20260508010217 | 43 | 24 | 0.0 | 4.0 | 0.00 | 0.00 | 0.00 | 67 | 1019.5 |
| 20260508005503 | 43 | 19 | 0.0 | 4.0 | 0.00 | 0.00 | 0.00 | 67 | 1019.5 |
| 20260508005003 | 43 | 12 | 0.0 | 3.0 | 0.00 | 0.00 | 0.00 | 67 | 1019.5 |
| 20260508004503 | 43 | 14 | 0.0 | 3.0 | 0.00 | 0.00 | 0.00 | 66 | 1019.4 |
| 20260508004217 | 44 | 15 | 0.0 | 3.0 | 0.00 | 0.00 | 0.00 | 66 | 1019.7 |
| 20260508003718 | 44 | 11 | 0.0 | 3.0 | 0.00 | 0.00 | 0.00 | 66 | 1019.5 |
| 20260508003003 | 44 | 13 | 0.0 | 3.0 | 0.00 | 0.00 | 0.00 | 66 | 1019.5 |
| 20260508002503 | 44 | 10 | 0.0 | 3.0 | 0.00 | 0.00 | 0.00 | 67 | 1019.3 |
| 20260508002003 | 43 | 360 | 0.0 | 3.0 | 0.00 | 0.00 | 0.00 | 67 | 1019.4 |
| 20260508001718 | 43 | 5 | 0.0 | 3.0 | 0.00 | 0.00 | 0.00 | 67 | 1019.4 |
| 20260508001003 | 43 | 15 | 0.0 | 3.0 | 0.00 | 0.00 | 0.00 | 66 | 1019.3 |
| 20260508000503 | 43 | 13 | 0.0 | 3.0 | 0.00 | 0.00 | 0.00 | 66 | 1019.4 |
| 20260508000003 | 43 | 15 | 0.0 | 4.0 | 0.00 | 0.00 | 0.00 | 66 | 1019.4 |
| 20260507235503 | 43 | 18 | 0.0 | 4.0 | 0.00 | 0.00 | 0.00 | 66 | 1019.4 |
| 20260507235003 | 43 | 19 | 0.0 | 4.0 | 0.00 | 0.00 | 0.00 | 66 | 1019.3 |
| 20260507234503 | 43 | 17 | 0.0 | 3.0 | 0.00 | 0.00 | 0.00 | 66 | 1019.5 |
| 20260507234003 | 43 | 17 | 0.0 | 3.0 | 0.00 | 0.00 | 0.00 | 66 | 1019.4 |
| 20260507233503 | 43 | 15 | 0.0 | 1.0 | 0.00 | 0.00 | 0.00 | 66 | 1019.5 |
| 20260507233003 | 43 | 15 | 0.0 | 1.0 | 0.00 | 0.00 | 0.00 | 66 | 1019.4 |
| 20260507232503 | 43 | 16 | 0.0 | 1.0 | 0.00 | 0.00 | 0.00 | 66 | 1019.3 |
| 20260507232003 | 43 | 16 | 0.0 | 1.0 | 0.00 | 0.00 | 0.00 | 66 | 1019.2 |
| 20260507231503 | 43 | 16 | 0.0 | 1.0 | 0.00 | 0.00 | 0.00 | 65 | 1019.3 |
| 20260507231003 | 43 | 17 | 0.0 | 1.0 | 0.00 | 0.00 | 0.00 | 65 | 1019.3 |
| 20260507230503 | 43 | 0 | 0.0 | 0.0 | 0.00 | 0.00 | 0.00 | 65 | 1019.2 |
| 20260507230003 | 43 | 21 | 0.0 | 3.0 | 0.00 | 0.00 | 0.00 | 65 | 1019.2 |
| 20260507225717 | 43 | 21 | 0.0 | 3.0 | 0.00 | 0.00 | 0.00 | 64 | 1019.4 |
| 20260507225003 | 43 | 16 | 0.0 | 1.0 | 0.00 | 0.00 | 0.00 | 64 | 1019.2 |
| 20260507224504 | 43 | 18 | 0.0 | 1.0 | 0.00 | 0.00 | 0.00 | 64 | 1019.1 |
| 20260507224003 | 43 | 19 | 0.0 | 3.0 | 0.00 | 0.00 | 0.00 | 64 | 1019.5 |
| 20260507223503 | 43 | 20 | 0.0 | 3.0 | 0.00 | 0.00 | 0.00 | 64 | 1019.4 |
| 20260507223216 | 43 | 22 | 0.0 | 3.0 | 0.00 | 0.00 | 0.00 | 64 | 1019.5 |
| 20260507222503 | 44 | 27 | 0.0 | 1.0 | 0.00 | 0.00 | 0.00 | 64 | 1019.2 |
| 20260507222003 | 44 | 30 | 0.0 | 1.0 | 0.00 | 0.00 | 0.00 | 64 | 1019.3 |
| 20260507221503 | 43 | 31 | 0.0 | 1.0 | 0.00 | 0.00 | 0.00 | 64 | 1019.2 |
| 20260507221003 | 43 | 30 | 0.0 | 1.0 | 0.00 | 0.00 | 0.00 | 64 | 1019.3 |
| 20260507220503 | 43 | 0 | 0.0 | 0.0 | 0.00 | 0.00 | 0.00 | 64 | 1019.2 |
| 20260507220218 | 43 | 0 | 0.0 | 0.0 | 0.00 | 0.00 | 0.00 | 64 | 1019.1 |
| 20260507215503 | 44 | 27 | 0.0 | 1.0 | 0.00 | 0.00 | 0.00 | 63 | 1019.0 |
| 20260507215003 | 44 | 27 | 0.0 | 1.0 | 0.00 | 0.00 | 0.00 | 63 | 1019.1 |
| 20260507214503 | 44 | 27 | 0.0 | 1.0 | 0.00 | 0.00 | 0.00 | 63 | 1019.1 |
| 20260507214003 | 44 | 0 | 0.0 | 0.0 | 0.00 | 0.00 | 0.00 | 62 | 1019.3 |
| 20260507213717 | 44 | 0 | 0.0 | 0.0 | 0.00 | 0.00 | 0.00 | 62 | 1019.0 |
| 20260507213003 | 44 | 0 | 0.0 | 0.0 | 0.00 | 0.00 | 0.00 | 62 | 1019.0 |
| 20260507212503 | 44 | 0 | 0.0 | 0.0 | 0.00 | 0.00 | 0.00 | 62 | 1018.9 |
| 20260507212218 | 45 | 0 | 0.0 | 0.0 | 0.00 | 0.00 | 0.00 | 62 | 1018.8 |
| 20260507211503 | 45 | 0 | 0.0 | 0.0 | 0.00 | 0.00 | 0.00 | 61 | 1018.8 |
| 20260507211003 | 45 | 25 | 0.0 | 1.0 | 0.00 | 0.00 | 0.00 | 61 | 1019.0 |
| 20260507210503 | 45 | 25 | 0.0 | 1.0 | 0.00 | 0.00 | 0.00 | 61 | 1019.0 |
| 20260507210218 | 45 | 25 | 0.0 | 1.0 | 0.00 | 0.00 | 0.00 | 61 | 1019.1 |
| 20260507205503 | 45 | 0 | 0.0 | 0.0 | 0.00 | 0.00 | 0.00 | 61 | 1018.8 |
| 20260507205003 | 46 | 0 | 0.0 | 0.0 | 0.00 | 0.00 | 0.00 | 61 | 1018.8 |
| 20260507204503 | 46 | 0 | 0.0 | 0.0 | 0.00 | 0.00 | 0.00 | 60 | 1018.8 |
| 20260507204003 | 46 | 0 | 0.0 | 0.0 | 0.00 | 0.00 | 0.00 | 60 | 1018.8 |
| 20260507203503 | 46 | 0 | 0.0 | 0.0 | 0.00 | 0.00 | 0.00 | 60 | 1018.6 |
| 20260507203218 | 46 | 0 | 0.0 | 0.0 | 0.00 | 0.00 | 0.00 | 60 | 1018.8 |
| 20260507202716 | 46 | 0 | 0.0 | 0.0 | 0.00 | 0.00 | 0.00 | 60 | 1018.9 |
| 20260507202003 | 46 | 0 | 0.0 | 0.0 | 0.00 | 0.00 | 0.00 | 59 | 1018.6 |
| 20260507201503 | 47 | 0 | 0.0 | 0.0 | 0.00 | 0.00 | 0.00 | 59 | 1018.5 |
| 20260507201003 | 47 | 0 | 0.0 | 0.0 | 0.00 | 0.00 | 0.00 | 59 | 1018.5 |
| 20260507200503 | 47 | 0 | 0.0 | 0.0 | 0.00 | 0.00 | 0.00 | 59 | 1018.4 |
| 20260507200003 | 47 | 0 | 0.0 | 0.0 | 0.00 | 0.00 | 0.00 | 59 | 1018.4 |
| 20260507195503 | 47 | 25 | 0.0 | 1.0 | 0.00 | 0.00 | 0.00 | 58 | 1018.6 |
| 20260507195003 | 48 | 25 | 0.0 | 1.0 | 0.00 | 0.00 | 0.00 | 58 | 1018.3 |
| 20260507194718 | 48 | 25 | 0.0 | 1.0 | 0.00 | 0.00 | 0.00 | 57 | 1018.4 |
| 20260507194003 | 48 | 21 | 0.0 | 1.0 | 0.00 | 0.00 | 0.00 | 57 | 1018.4 |
| 20260507193503 | 49 | 32 | 0.0 | 1.0 | 0.00 | 0.00 | 0.00 | 56 | 1018.4 |
| 20260507193003 | 49 | 40 | 0.0 | 1.0 | 0.00 | 0.00 | 0.00 | 55 | 1018.2 |
| 20260507192718 | 50 | 40 | 0.0 | 1.0 | 0.00 | 0.00 | 0.00 | 55 | 1018.2 |
| 20260507192217 | 50 | 41 | 0.0 | 1.0 | 0.00 | 0.00 | 0.00 | 54 | 1018.0 |
| 20260507191718 | 51 | 0 | 0.0 | 0.0 | 0.00 | 0.00 | 0.00 | 53 | 1018.1 |
| 20260507191003 | 51 | 0 | 0.0 | 0.0 | 0.00 | 0.00 | 0.00 | 53 | 1018.4 |
| 20260507190504 | 52 | 0 | 0.0 | 0.0 | 0.00 | 0.00 | 0.00 | 52 | 1018.1 |
| 20260507190217 | 52 | 0 | 0.0 | 0.0 | 0.00 | 0.00 | 0.00 | 52 | 1018.2 |
| 20260507185503 | 53 | 0 | 0.0 | 0.0 | 0.00 | 0.00 | 0.00 | 51 | 1017.9 |
| 20260507185003 | 53 | 0 | 0.0 | 0.0 | 0.00 | 0.00 | 0.00 | 51 | 1017.9 |
| 20260507184503 | 54 | 54 | 0.0 | 1.0 | 0.00 | 0.00 | 0.00 | 50 | 1017.8 |
| 20260507184217 | 54 | 54 | 0.0 | 1.0 | 0.00 | 0.00 | 0.00 | 50 | 1017.8 |
| 20260507183503 | 54 | 45 | 0.0 | 3.0 | 0.00 | 0.00 | 0.00 | 49 | 1017.8 |
| 20260507183003 | 55 | 39 | 1.0 | 4.0 | 0.00 | 0.00 | 0.00 | 48 | 1017.5 |
| 20260507182718 | 55 | 44 | 1.0 | 5.0 | 0.00 | 0.00 | 0.00 | 48 | 1017.8 |
| 20260507182003 | 55 | 50 | 1.0 | 5.0 | 0.00 | 0.00 | 0.00 | 47 | 1017.5 |
| 20260507181503 | 55 | 53 | 1.0 | 7.0 | 0.00 | 0.00 | 0.00 | 47 | 1017.4 |
| 20260507181003 | 55 | 54 | 1.0 | 7.0 | 0.00 | 0.00 | 0.00 | 47 | 1017.4 |
| 20260507180718 | 55 | 46 | 1.0 | 7.0 | 0.00 | 0.00 | 0.00 | 47 | 1017.4 |
| 20260507180003 | 56 | 53 | 1.0 | 5.0 | 0.00 | 0.00 | 0.00 | 47 | 1017.4 |
| 20260507175503 | 56 | 54 | 2.0 | 7.0 | 0.00 | 0.00 | 0.00 | 47 | 1017.4 |
| 20260507175217 | 56 | 39 | 2.0 | 7.0 | 0.00 | 0.00 | 0.00 | 47 | 1017.3 |
| 20260507174503 | 56 | 21 | 1.0 | 7.0 | 0.00 | 0.00 | 0.00 | 47 | 1017.4 |
| 20260507174003 | 56 | 59 | 1.0 | 5.0 | 0.00 | 0.00 | 0.00 | 47 | 1017.2 |
| 20260507173503 | 56 | 56 | 1.0 | 5.0 | 0.00 | 0.00 | 0.00 | 47 | 1017.4 |
| 20260507173003 | 56 | 63 | 1.0 | 5.0 | 0.00 | 0.00 | 0.00 | 47 | 1017.3 |
| 20260507172503 | 56 | 67 | 2.0 | 8.0 | 0.00 | 0.00 | 0.00 | 46 | 1017.0 |
| 20260507172003 | 57 | 51 | 2.0 | 8.0 | 0.00 | 0.00 | 0.00 | 46 | 1017.2 |
| 20260507171717 | 57 | 63 | 3.0 | 8.0 | 0.00 | 0.00 | 0.00 | 46 | 1017.3 |
| 20260507171003 | 57 | 110 | 2.0 | 7.0 | 0.00 | 0.00 | 0.00 | 46 | 1017.1 |
| 20260507170503 | 57 | 84 | 2.0 | 10.0 | 0.00 | 0.00 | 0.00 | 47 | 1017.1 |
| 20260507170003 | 57 | 48 | 4.0 | 10.0 | 0.00 | 0.00 | 0.00 | 46 | 1017.1 |
| 20260507165503 | 57 | 64 | 3.0 | 10.0 | 0.00 | 0.00 | 0.00 | 47 | 1016.9 |
| 20260507165003 | 57 | 49 | 2.0 | 11.0 | 0.00 | 0.00 | 0.00 | 47 | 1017.0 |
| 20260507164717 | 57 | 36 | 1.0 | 11.0 | 0.00 | 0.00 | 0.00 | 47 | 1017.1 |
| 20260507164003 | 58 | 56 | 1.0 | 7.0 | 0.00 | 0.00 | 0.00 | 48 | 1016.9 |
| 20260507163503 | 58 | 49 | 2.0 | 7.0 | 0.00 | 0.00 | 0.00 | 47 | 1016.8 |
| 20260507163003 | 58 | 68 | 2.0 | 8.0 | 0.00 | 0.00 | 0.00 | 47 | 1016.8 |
| 20260507162503 | 58 | 93 | 2.0 | 8.0 | 0.00 | 0.00 | 0.00 | 47 | 1016.9 |
| 20260507162003 | 58 | 75 | 2.0 | 5.0 | 0.00 | 0.00 | 0.00 | 47 | 1017.0 |
| 20260507161503 | 58 | 54 | 2.0 | 7.0 | 0.00 | 0.00 | 0.00 | 46 | 1016.7 |
| 20260507161003 | 59 | 63 | 3.0 | 12.0 | 0.00 | 0.00 | 0.00 | 47 | 1016.7 |
| 20260507160503 | 59 | 67 | 4.0 | 12.0 | 0.00 | 0.00 | 0.00 | 46 | 1016.7 |
| 20260507160003 | 59 | 58 | 2.0 | 10.0 | 0.00 | 0.00 | 0.00 | 47 | 1016.8 |
| 20260507155503 | 59 | 40 | 2.0 | 8.0 | 0.00 | 0.00 | 0.00 | 47 | 1016.8 |
| 20260507155003 | 59 | 59 | 2.0 | 8.0 | 0.00 | 0.00 | 0.00 | 47 | 1016.7 |
| 20260507154503 | 59 | 73 | 2.0 | 8.0 | 0.00 | 0.00 | 0.00 | 47 | 1016.7 |
| 20260507154003 | 59 | 94 | 1.0 | 8.0 | 0.00 | 0.00 | 0.00 | 47 | 1016.7 |
| 20260507153717 | 59 | 82 | 1.0 | 8.0 | 0.00 | 0.00 | 0.00 | 47 | 1016.6 |
| 20260507153218 | 59 | 82 | 2.0 | 8.0 | 0.00 | 0.00 | 0.00 | 47 | 1016.6 |
| 20260507152503 | 60 | 57 | 4.0 | 14.0 | 0.00 | 0.00 | 0.00 | 46 | 1016.4 |
| 20260507152003 | 60 | 44 | 4.0 | 14.0 | 0.00 | 0.00 | 0.00 | 47 | 1016.6 |
| 20260507151503 | 60 | 46 | 5.0 | 12.0 | 0.00 | 0.00 | 0.00 | 46 | 1016.5 |
| 20260507151003 | 60 | 63 | 4.0 | 11.0 | 0.00 | 0.00 | 0.00 | 46 | 1016.4 |
| 20260507150503 | 60 | 106 | 3.0 | 8.0 | 0.00 | 0.00 | 0.00 | 46 | 1016.3 |
| 20260507150217 | 60 | 118 | 3.0 | 8.0 | 0.00 | 0.00 | 0.00 | 46 | 1016.3 |
| 20260507145503 | 61 | 74 | 3.0 | 10.0 | 0.00 | 0.00 | 0.00 | 46 | 1016.4 |
| 20260507145003 | 61 | 74 | 3.0 | 10.0 | 0.00 | 0.00 | 0.00 | 46 | 1016.3 |
| 20260507144503 | 61 | 64 | 3.0 | 12.0 | 0.00 | 0.00 | 0.00 | 46 | 1016.3 |
| 20260507144003 | 60 | 43 | 5.0 | 18.0 | 0.00 | 0.00 | 0.00 | 46 | 1016.2 |
| 20260507143716 | 60 | 39 | 5.0 | 18.0 | 0.00 | 0.00 | 0.00 | 46 | 1016.3 |
| 20260507143003 | 61 | 35 | 2.0 | 7.0 | 0.00 | 0.00 | 0.00 | 45 | 1016.2 |
| 20260507142503 | 61 | 60 | 3.0 | 12.0 | 0.00 | 0.00 | 0.00 | 45 | 1016.4 |